Preview of NWS' New Version of Forecast
This preview is not operational and should not be used for support decisions.

Regional Weather Roundup (RWR)

Issued by National Weather Service (NWS)

                            
000
ASUS45 KCYS 160810
RWRWY 

WYOMING REGIONAL WEATHER ROUNDUP
NATIONAL WEATHER SERVICE CHEYENNE WY
200 AM MDT TUE JUL 16 2019

NOTE:  "FAIR" INDICATES FEW OR NO CLOUDS BELOW 12,000 FEET
WITH NO SIGNIFICANT WEATHER AND/OR OBSTRUCTIONS TO VISIBILITY.

WYZ001-160900-
YELLOWSTONE NATIONAL PARK
  
CITY           SKY/WX    TMP DP  RH WIND       PRES   REMARKS
LK YELLOWSTONE   N/A     44  39  82 CALM      30.23S                  
W YELLOWSTONE  NOT AVBL                                               

$$
WYZ002>013-054>058-071-098>099-160900-
NORTHERN WYOMING
  
CITY           SKY/WX    TMP DP  RH WIND       PRES   REMARKS
JACKSON        FAIR      47  42  83 E3        30.15S                  
CODY           FAIR      56  50  80 S5        30.07F                  
GREYBULL       FAIR      64  53  67 MISG      29.98R                  
WORLAND        FAIR      61  55  81 CALM      30.00S                  
SHERIDAN       FAIR      64  56  75 SE5       30.01F                  
BUFFALO        FAIR      60  58  92 MISG      30.08F                  
GILLETTE       FAIR      54  53  97 S9        30.06F                  
HULETT         FAIR      57  54  88 SE5       30.07F                  
NEWCASTLE      FAIR      55  52  88 E9        30.08                   

$$
WYZ014>020-022>026-101>103-160900-
CENTRAL WYOMING
  
CITY           SKY/WX    TMP DP  RH WIND       PRES   REMARKS
BIG PINEY      FAIR      49  39  68 N6        30.19F                  
PINEDALE       FAIR      45  43  93 NW6       30.21                   
DUBOIS         FAIR      50  39  66 W9        30.20                   
LANDER         FAIR      61  45  55 SW6       30.09F                  
RIVERTON       FAIR      57  50  77 N5        30.09R                  
CASPER         FAIR      55  51  86 NE3       30.10F                  
DOUGLAS        FAIR      57  52  83 E10       30.10S                  

$$
WYZ021-027>030-104>119-160900-
SOUTHERN WYOMING
  
CITY           SKY/WX    TMP DP  RH WIND       PRES   REMARKS
EVANSTON       FAIR      61  33  35 E7        30.17F                  
KEMMERER       FAIR      52  36  54 N6        30.20                   
ROCK SPRINGS   FAIR      66  34  30 CALM      30.14F                  
DIXON          FAIR      58  43  56 E18G24    30.18S                  
RAWLINS        FAIR      57  47  69 S3        30.16F                  
SARATOGA       FAIR      59  43  55 S10       30.19S                  
LARAMIE        FAIR      56  47  71 VRB7      30.21F                  
CHEYENNE       FAIR      59  53  80 W6        30.15S                  
TORRINGTON     FAIR      62  58  86 N8        30.04S                  
PINE BLUFFS    FAIR      57  54  88 NW3       30.11S                  

$$